[[{"header":{"parameterUnit":"m.s-1","parameterCategory":1,"la1":30.2991,"la2":30.254,"lo1":-89.0895,"lo2":-89.0444,"dy":0.0017,"dx":0.0017,"nx":28,"ny":28,"refTime":"2025-06-04T21:00:00:Z","depth":0,"parameterNumber":2,"parameterNumberName":"U-component_of_WINDS"},"data":[0,0,0,0,0,0,0,0,0,0,0,0,0,0,0,0,0,0,0,0,0,0,0,0,0,0,0,0,0,0,0,0,0,0,0,0,0,0,0,0,0,0,0,0,0,0,0,0,0,0,0,0,0,0,0,0,0,0,1.4742,1.4743,0,1.4856,1.4857,1.4858,1.4915,1.4915,1.4915,1.4915,1.5035,1.5038,1.5041,0,0,0,0,0,0,0,0,0,0,0,0,0,1.4577,1.458,1.4742,1.4743,1.4745,1.4855,1.4857,1.4859,1.4915,1.4915,1.4915,1.4915,1.5034,1.5038,1.5041,0,0,0,0,0,0,0,0,0,0,0,0,0,1.4666,1.4581,1.4741,1.4786,1.4791,1.4855,1.4857,1.4859,1.4915,1.4915,1.4915,1.4915,1.5033,1.5037,1.5042,1.5071,0,0,1.5056,1.5059,0,0,0,0,0,0,0,0,1.4661,1.4672,1.4778,1.4783,1.4789,1.4871,1.4843,1.493,1.4915,1.4868,1.4915,1.4915,1.4981,1.499,1.5011,1.5077,1.5082,1.5057,1.506,1.5062,1.5063,0,0,0,0,0,0,0,1.4654,1.4667,1.4787,1.478,1.4786,1.4802,1.4814,1.486,1.4923,1.4872,1.4877,1.4889,1.4984,1.5006,1.5014,1.5084,1.5057,1.5061,1.5064,1.5066,1.5181,1.5181,0,0,0,0,0,0,1.4641,1.4662,1.4783,1.479,1.4723,1.4805,1.4819,1.4845,1.4923,1.4934,1.4889,1.4891,1.4998,1.5009,1.5019,1.5059,1.5062,1.5066,1.5069,1.518,1.5181,1.5181,0,0,0,0,0,0,1.4637,1.4651,1.4779,1.4727,1.4745,1.4807,1.4836,1.4847,1.487,1.4935,1.4947,1.49,1.4999,1.5012,1.5058,1.5064,1.5068,1.5073,1.518,1.518,1.5181,1.5138,0,0,0,0,0,0,1.4632,1.4649,1.466,1.4727,1.4747,1.4814,1.4837,1.4849,1.4878,1.4882,1.4949,1.496,1.5,1.505,1.5062,1.507,1.5076,1.518,1.518,1.5181,1.514,1.5137,1.5135,0,0,0,0,0,1.4626,1.4644,1.466,1.4674,1.4762,1.4815,1.4826,1.487,1.4878,1.489,1.4932,1.4958,1.5061,1.5055,1.5069,1.5078,1.518,1.518,1.5181,1.5141,1.5138,1.5135,0,0,0,0,0,0,1.4576,1.4653,1.4672,1.4712,1.4756,1.4824,1.484,1.4866,1.4909,1.4912,1.4965,1.498,1.5021,1.5055,1.5046,1.5111,1.5123,1.5126,1.5088,1.5086,1.5084,1.5075,1.508,0,0,0,0,0,1.4569,1.4605,1.4671,1.47,1.4721,1.4777,1.4802,1.4832,1.488,1.4899,1.4945,1.4992,1.5035,1.5062,1.5106,1.5145,1.5161,1.5159,1.5156,1.5154,1.5156,1.5181,1.5181,1.5182,1.5182,1.5182,0,0,1.4557,1.4603,1.4622,1.4691,1.4729,1.4766,1.4792,1.483,1.4858,1.4906,1.4951,1.4987,1.5043,1.5085,1.5107,1.5114,1.516,1.5155,1.5153,1.5156,1.5181,1.5181,1.5181,1.5183,1.5182,1.5182,0,0,1.4552,1.459,1.4619,1.4657,1.4714,1.4751,1.4758,1.4822,1.4847,1.4894,1.4931,1.4966,1.5039,1.5077,1.5107,1.5118,1.5145,1.5131,1.512,1.5143,1.5143,1.5143,1.5148,1.5149,1.5133,1.5133,1.5133,0,1.4529,1.4585,1.4631,1.4667,1.4697,1.4741,1.4772,1.4806,1.4874,1.4894,1.4902,1.4995,1.5036,1.5089,1.5092,1.5114,1.5125,1.5124,1.5139,1.514,1.5141,1.5146,1.5148,1.5131,1.5131,1.5132,1.5132,0,1.4555,1.4593,1.461,1.4674,1.4706,1.4739,1.4791,1.4818,1.4846,1.4883,1.4931,1.4982,1.5036,1.5051,1.5079,1.5109,1.5112,1.5128,1.5142,1.5138,1.5144,1.5146,1.5128,1.5129,1.513,1.513,0,0,1.452,1.4611,1.4616,1.4647,1.4713,1.4745,1.4781,1.4833,1.4856,1.4902,1.4934,1.4995,1.5012,1.5045,1.5078,1.5098,1.5105,1.5113,1.5115,1.511,1.5143,1.513,1.5131,1.5123,1.5124,1.5124,1.5138,0,1.4526,1.459,1.4634,1.4682,1.4719,1.4763,1.4794,1.4839,1.4875,1.4913,1.4953,1.4996,1.5013,1.5034,1.5056,1.5099,1.5113,1.5099,1.5155,1.5156,1.5139,1.5134,1.512,1.5131,1.5141,1.5141,1.5141,0,1.454,1.4584,1.4636,1.47,1.4717,1.4745,1.4798,1.4833,1.4885,1.491,1.4948,1.4981,1.5022,1.5032,1.509,1.508,1.5106,1.5131,1.5132,1.5139,1.5148,1.5141,1.5135,1.5137,1.5145,1.5145,1.5145,0,1.451,1.4583,1.4624,1.4649,1.4724,1.4743,1.4775,1.4828,1.4858,1.4905,1.4925,1.4976,1.5004,1.5043,1.509,1.5092,1.5144,1.5157,1.5166,1.5165,1.5175,1.5174,1.5173,1.5191,1.5191,1.5191,1.5191,0,1.4511,1.4541,1.4612,1.4637,1.4673,1.4724,1.4758,1.4794,1.4841,1.4875,1.4917,1.4948,1.5008,1.5047,1.5084,1.5127,1.514,1.5162,1.5171,1.5158,1.5155,1.5176,1.5176,1.5191,1.5191,1.5191,1.5191,0,1.4483,1.4532,1.458,1.4648,1.4666,1.4689,1.4748,1.4775,1.4814,1.4856,1.4869,1.493,1.4978,1.5029,1.5095,1.512,1.5162,1.5175,1.5144,1.5149,1.5156,1.5154,1.5168,1.5173,1.5187,1.5186,1.5186,0,1.4481,1.4505,1.4576,1.4601,1.4633,1.4673,1.4704,1.4756,1.4786,1.4849,1.4868,1.492,1.4963,1.5039,1.5089,1.514,1.5155,1.5157,1.5163,1.515,1.5156,1.5154,1.5157,1.5154,1.5154,1.5154,1.5153,0,1.4471,1.4494,1.4536,1.4587,1.4622,1.4665,1.4709,1.4728,1.4789,1.4821,1.487,1.4904,1.4972,1.5023,1.508,1.5115,1.5145,1.5151,1.5156,1.5143,1.5124,1.5135,1.5138,1.515,1.5151,1.5151,1.5151,1.5151,1.4456,1.448,1.4534,1.458,1.4619,1.466,1.4689,1.4731,1.4773,1.4832,1.486,1.491,1.4964,1.5044,1.5079,1.5119,1.5128,1.5135,1.5137,1.5138,1.5135,1.5117,1.513,1.513,1.513,1.513,1.5131,0,1.4448,1.4486,1.4527,1.4588,1.4625,1.465,1.4701,1.473,1.4773,1.4821,1.4863,1.4921,1.4971,1.5026,1.508,1.5102,1.5117,1.5114,1.5113,1.5121,1.5124,1.5114,1.5101,1.5101,1.5101,1.5101,1.5101,1.5101,1.4449,1.4491,1.4521,1.4584,1.4622,1.4671,1.4698,1.4736,1.4775,1.4838,1.4879,1.4915,1.4966,1.5024,1.5071,1.5087,1.5105,1.5098,1.5117,1.5118,1.5121,1.5123,1.5114,1.5101,1.5101,1.5111,1.5111,1.5111]},{"header":{"parameterUnit":"m.s-1","parameterCategory":1,"la1":30.2991,"la2":30.254,"lo1":-89.0895,"lo2":-89.0444,"dy":0.0017,"dx":0.0017,"nx":28,"ny":28,"refTime":"2025-06-04T21:00:00:Z","depth":0,"parameterNumber":3,"parameterNumberName":"V-component_of_WINDS"},"data":[0,0,0,0,0,0,0,0,0,0,0,0,0,0,0,0,0,0,0,0,0,0,0,0,0,0,0,0,0,0,0,0,0,0,0,0,0,0,0,0,0,0,0,0,0,0,0,0,0,0,0,0,0,0,0,0,0,0,4.2165,4.2165,0,4.2182,4.2182,4.2182,4.2197,4.2197,4.2197,4.2197,4.2212,4.2212,4.2212,0,0,0,0,0,0,0,0,0,0,0,0,0,4.2143,4.2144,4.2165,4.2165,4.2165,4.2181,4.2182,4.2182,4.2197,4.2197,4.2197,4.2197,4.2212,4.2212,4.2212,0,0,0,0,0,0,0,0,0,0,0,0,0,4.2156,4.2144,4.2165,4.2174,4.2175,4.2181,4.2182,4.2182,4.2197,4.2197,4.2197,4.2197,4.2212,4.2212,4.2212,4.2209,0,0,4.2214,4.2214,0,0,0,0,0,0,0,0,4.2155,4.2156,4.2173,4.2174,4.2175,4.2187,4.218,4.2191,4.2197,4.2188,4.2197,4.2198,4.2203,4.2204,4.2207,4.221,4.2211,4.2214,4.2214,4.2214,4.2214,0,0,0,0,0,0,0,4.2154,4.2156,4.2171,4.2173,4.2174,4.2177,4.2179,4.2182,4.2194,4.2189,4.219,4.2192,4.2204,4.2207,4.2207,4.2211,4.2214,4.2214,4.2214,4.2214,4.2213,4.2212,0,0,0,0,0,0,4.2152,4.2155,4.2171,4.2172,4.2165,4.2178,4.218,4.2183,4.2194,4.2196,4.2192,4.2193,4.2206,4.2207,4.2208,4.2205,4.2214,4.2214,4.2214,4.2213,4.2213,4.2212,0,0,0,0,0,0,4.2151,4.2153,4.217,4.2164,4.2166,4.2178,4.2181,4.2183,4.2186,4.2196,4.2198,4.2193,4.2206,4.2207,4.2209,4.2206,4.2214,4.2215,4.2213,4.2213,4.2212,4.22,0,0,0,0,0,0,4.2151,4.2153,4.2152,4.2164,4.2166,4.2171,4.2181,4.2183,4.2187,4.2188,4.2197,4.2199,4.2206,4.2209,4.2209,4.2207,4.2215,4.2213,4.2213,4.2213,4.22,4.2199,4.2198,0,0,0,0,0,4.215,4.2147,4.2152,4.2154,4.2166,4.2171,4.2173,4.2182,4.2186,4.2185,4.2192,4.2199,4.2206,4.2209,4.221,4.2207,4.2214,4.2213,4.2213,4.2201,4.2199,4.2198,0,0,0,0,0,0,4.2134,4.2149,4.2154,4.2155,4.2162,4.2174,4.2173,4.2179,4.2184,4.2185,4.2196,4.2198,4.2198,4.2203,4.2205,4.2205,4.2211,4.2211,4.2202,4.22,4.2199,4.2197,4.2215,0,0,0,0,0,4.2131,4.2134,4.2147,4.2147,4.215,4.2161,4.2163,4.217,4.2177,4.218,4.2187,4.2193,4.2196,4.2198,4.2202,4.2201,4.2204,4.22,4.2199,4.2197,4.2197,4.2197,4.2196,4.221,4.221,4.221,0,0,4.2123,4.2132,4.2134,4.2144,4.215,4.2153,4.2163,4.2166,4.2168,4.218,4.2182,4.2188,4.2195,4.2195,4.2196,4.2199,4.2193,4.2197,4.2196,4.2196,4.2196,4.2195,4.2193,4.221,4.221,4.221,0,0,4.2112,4.2119,4.212,4.2126,4.2136,4.2143,4.2143,4.2154,4.2159,4.2161,4.2171,4.2173,4.2179,4.2184,4.2188,4.218,4.2186,4.2181,4.2173,4.2173,4.2172,4.2171,4.2168,4.2167,4.218,4.218,4.218,0,4.2102,4.2108,4.2119,4.2122,4.2126,4.2138,4.2139,4.2144,4.2154,4.2156,4.216,4.2169,4.2174,4.2176,4.2175,4.2177,4.2177,4.2179,4.2171,4.2171,4.217,4.2167,4.2166,4.218,4.218,4.218,4.218,0,4.2095,4.2099,4.2098,4.2109,4.2113,4.2115,4.2126,4.2129,4.2135,4.2142,4.2145,4.2152,4.2158,4.216,4.2165,4.2162,4.2164,4.217,4.2176,4.2167,4.2165,4.2164,4.2179,4.2179,4.2179,4.2179,0,0,4.2073,4.2091,4.209,4.2096,4.2108,4.2111,4.2113,4.212,4.2122,4.2129,4.2131,4.2136,4.2142,4.2145,4.2152,4.2152,4.2146,4.2158,4.2158,4.2155,4.2143,4.2139,4.2137,4.215,4.215,4.215,4.2142,0,4.2063,4.2069,4.208,4.2082,4.2086,4.2098,4.21,4.2108,4.2114,4.2118,4.2125,4.2129,4.2136,4.2139,4.2139,4.2146,4.2143,4.2147,4.2151,4.2151,4.2149,4.2136,4.2132,4.2124,4.2142,4.2141,4.2141,0,4.2053,4.206,4.2063,4.2076,4.2078,4.208,4.2087,4.2091,4.21,4.2105,4.211,4.2117,4.212,4.2126,4.213,4.2132,4.2135,4.2139,4.2139,4.2139,4.2146,4.2136,4.2122,4.2121,4.214,4.214,4.214,0,4.2037,4.2047,4.2051,4.2055,4.2069,4.2071,4.2076,4.2085,4.2089,4.2096,4.2098,4.2105,4.2108,4.2112,4.2121,4.2125,4.2124,4.2131,4.2128,4.2128,4.2127,4.2127,4.2113,4.2129,4.2129,4.2129,4.2129,0,4.2025,4.2026,4.2044,4.2046,4.2048,4.206,4.2061,4.2068,4.2076,4.2079,4.209,4.2092,4.2105,4.2108,4.2115,4.2118,4.2119,4.2123,4.2124,4.2122,4.2121,4.2123,4.2124,4.2128,4.2128,4.2129,4.2129,0,4.2007,4.2019,4.2023,4.2037,4.2041,4.2042,4.2054,4.2056,4.2064,4.2068,4.2069,4.2081,4.2086,4.2096,4.2104,4.2109,4.2109,4.2112,4.2106,4.2108,4.2104,4.2104,4.2091,4.2089,4.2106,4.2106,4.2106,0,4.1998,4.2,4.2015,4.2019,4.2025,4.203,4.2034,4.2047,4.2051,4.2061,4.2062,4.2068,4.2074,4.2082,4.209,4.2096,4.21,4.2095,4.2101,4.2098,4.21,4.21,4.21,4.2093,4.2093,4.2093,4.2093,0,4.1982,4.1989,4.1995,4.2004,4.2009,4.2017,4.2024,4.2026,4.204,4.2044,4.205,4.2055,4.2063,4.2069,4.2077,4.2082,4.2089,4.2091,4.209,4.2087,4.2084,4.2086,4.2103,4.2091,4.2091,4.2091,4.2091,4.2091,4.1969,4.1971,4.1983,4.199,4.1997,4.2004,4.2008,4.2017,4.2022,4.2031,4.2038,4.2043,4.2052,4.2063,4.2068,4.2072,4.2076,4.2075,4.2075,4.2075,4.2073,4.2084,4.2074,4.2074,4.2074,4.2074,4.2074,0,4.1953,4.1962,4.1968,4.198,4.1985,4.1993,4.2002,4.2006,4.2012,4.202,4.2026,4.2033,4.2039,4.2049,4.2056,4.2057,4.2061,4.2058,4.2058,4.2059,4.207,4.207,4.2056,4.2056,4.2056,4.2056,4.2056,4.2056,4.1946,4.1951,4.1958,4.1967,4.1975,4.1981,4.1986,4.1993,4.1999,4.2007,4.2013,4.202,4.2029,4.2037,4.2042,4.2045,4.2047,4.2044,4.2047,4.2057,4.2059,4.206,4.206,4.2044,4.2044,4.2037,4.2037,4.2037]}]]